Location: Unspecified
(36.5600°N, 136.6600°E)
Time: 19:52:10
(UTC+09:00)

BlueWalker 3 - Pass Details

Date: 18 June 2024
Orbit: 480 x 491 km, 53.2° (Epoch: 19 July)

Event Time Altitude Azimuth Distance (km) Brightness Sun altitude
Rises 21:16:51 0° 242° (WSW) 2,531 5.6 -19.4°
Reaches altitude 10° 21:19:05 10° 249° (WSW) 1,653 4.7 -19.7°
Maximum altitude 21:22:38 42° 321° (NW) 700 3.1 -20.1°
Drops below altitude 10° 21:26:12 10° 34° (NE) 1,656 4.8 -20.5°
Sets 21:28:27 0° 41° (NE) 2,537 5.7 -20.8°
